Regional Weather Roundup
Issued by NWS

Home | Current Version | Previous Version | Graphics & Text | Print | Product List | Glossary On
Versions: 1 2 3 4 5 6 7 8 9 10 11 12 13 14 15 16 17 18 19 20 21 22 23 24 25 26 27 28 29 30 31 32 33 34 35 36 37 38 39 40 41 42 43 44 45 46 47 48 49 50
576
ASUS43 KMKX 291311
RWRWI

WISCONSIN REGIONAL WEATHER ROUNDUP
NATIONAL WEATHER SERVICE MILWAUKEE/SULLIVAN WI
800 AM CDT SUN MAY 29 2016

NOTE: "FAIR" INDICATES FEW OR NO CLOUDS BELOW 12,000 FEET WITH NO
SIGNIFICANT WEATHER AND/OR OBSTRUCTIONS TO VISIBILITY.

WIZ001-002-006>008-014>016-023>028-291400-
NORTHWEST WISCONSIN

CITY           SKY/WX    TMP DP  RH WIND       PRES   REMARKS
SUPERIOR ARPT  CLOUDY    58  58 100 SW7       29.81R
ASHLAND        CLOUDY    58  56  93 VRB5      29.81R
HAYWARD        CLOUDY    60  58  92 SW3       29.84R
SIREN          CLOUDY    60  59  94 W7        29.86R
CUMBERLAND     CLOUDY    59  57  94 W8        29.86R
RICE LAKE      CLOUDY    61  58  90 CALM      29.88R
CHETEK         CLOUDY    61  60  97 SW3       29.87R
LADYSMITH      CLOUDY    63  60  91 SW7       29.88R
EAU CLAIRE     CLOUDY    63  61  93 W9        29.87R
MENOMONIE      CLOUDY    62  62  99 SW7       29.88R
NEW RICHMOND   HVY RAIN  61  60  97 W8        29.88R
OSCEOLA        RAIN      61  61 100 W8        29.91R
$$

WIZ003>005-009-010-017-018-291400-
NORTH CENTRAL WISCONSIN

CITY           SKY/WX    TMP DP  RH WIND       PRES   REMARKS
MANITOWISH WTR NOT AVBL
ARBOR VITAE    CLOUDY    62  60  94 SW5       29.84R
WOODRUFF       CLOUDY    62  60  94 SW5       29.84R
RHINELANDER    CLOUDY    62  58  86 W8        29.86R
EAGLE RIVER      N/A     61  59  96 SW8       29.84R
LAND O LAKES   CLOUDY    62  60  93 SW5       29.84S
PHILLIPS       CLOUDY    60  60 100 W6        29.83R
TOMAHAWK       LGT RAIN  60  58  92 CALM      29.86R
MEDFORD        CLOUDY    60  60 100 W6        29.86R
MERRILL        CLOUDY    64  61  88 W6        29.86S
$$

WIZ029-030-035-036-043>047-291400-
CENTRAL WISCONSIN

CITY           SKY/WX    TMP DP  RH WIND       PRES   REMARKS
WAUSAU         CLOUDY    66  60  81 SW6       29.84R
MOSINEE          N/A     63  63 100 SW9       29.87R
MARSHFIELD     RAIN      62  59  90 W8        29.86R FOG
STEVENS POINT  CLOUDY    62  59  89 SW8       29.87R
WAUPACA        PTSUNNY   68  64  89 S10       29.88S
WAUTOMA        RAIN      63  61  94 S6        29.89  FOG
WISC RAPIDS    CLOUDY    65  59  81 SW10      29.88R
CAMP DOUGLAS   LGT RAIN  63  61  94 W7        29.89R FOG
$$

WIZ011>013-019>022-031-037>040-048>050-291400-
NORTHEAST WISCONSIN

CITY           SKY/WX    TMP DP  RH WIND       PRES   REMARKS
ANTIGO         CLOUDY    62  61  96 SW7       29.86S
SHAWANO        CLOUDY    67  62  86 SW5       29.87S
OCONTO         MOSUNNY   68  68 100 SW8       29.86S
STURGEON BAY   NOT AVBL
GREEN BAY      SUNNY     69  62  78 SW12      29.88R
MANITOWOC      MOSUNNY   67  63  87 S12       29.91R
APPLETON       PTSUNNY   66  59  77 SW12G20   29.87S
CLINTONVILLE   MOSUNNY   66  61  82 SW6       29.87R
OSHKOSH        CLOUDY    66  60  81 SW13G21   29.89R
$$

WIZ032>034-041-042-053>061-291400-
SOUTHWEST WISCONSIN

CITY           SKY/WX    TMP DP  RH WIND       PRES   REMARKS
LA CROSSE      PTSUNNY   66  59  78 W13       29.92R
SPARTA         CLOUDY    64  61  91 W7        29.91R
VIROQUA        CLOUDY    63  60  91 W10G16    29.93R
BOSCOBEL       CLOUDY    66  62  87 SW8       29.94R
PRAIRIE DU CHI MOSUNNY   66  58  74 W7        29.95R
PLATTEVILLE    CLOUDY    64  62  91 W13       29.96R
$$

WIZ056-057-062-063-064-067-068-291400-
SOUTH CENTRAL WISCONSIN

CITY           SKY/WX    TMP DP  RH WIND       PRES   REMARKS
REEDSBURG      CLOUDY    64  61  92 SW9       29.91R
BARABOO/DELLS  CLOUDY    64  59  86 SW9       29.91R
LONE ROCK      CLOUDY    66  61  84 W10G16    29.93R
MINERAL POINT  CLOUDY    64  61  88 W13       29.95R
MADISON        PTSUNNY   65  59  81 SW9G18    29.92R
MIDDLETON      CLOUDY    66  61  82 SW13      29.93R
WATERTOWN      MOSUNNY   68  61  79 SW14G21   29.92R
MONROE         CLOUDY    63  57  82 W22       29.95R
JANESVILLE     NOT AVBL
$$

WIZ051-052-058>065-066-070>072-291400-
SOUTHEAST WISCONSIN

CITY           SKY/WX    TMP DP  RH WIND       PRES   REMARKS
MILWAUKEE      MOSUNNY   69  62  78 SW12      29.94S
WAUKESHA       SUNNY     64  61  88 SW14      29.95R
MILWAUKEE/TIMM SUNNY     68  61  77 SW10G21   29.94S
RACINE         MOSUNNY   70  62  76 SW12      29.96S
BURLINGTON     SUNNY     67  63  86 SW12      29.95S
KENOSHA        MOSUNNY   70  61  73 SW12      29.96S
FOND DU LAC    MOSUNNY   67  60  78 SW13G21   29.90R
SHEBOYGAN      SUNNY     68  62  81 S15       29.90F
WEST BEND      MOSUNNY   68  61  77 S9        29.91F
JUNEAU         CLOUDY    65  60  85 SW12      29.93R
$$

LSZ147-162-291400-
LAKE SUPERIOR

STATION/POSITION TIME  TEMP    WIND        PRES    WAVE
                       AIR SEA DIR/SP/G            HT/PER
                 (UTC) (F)     (DEG/KT/KT) (MB)    (FT/S)
W MID LAKE BUOY  1250   40 38  220/  6/  6 1009.0R   0
DEVILS ISLAND    1300   47     250/  9/ 10 1009.3R
SAXON HARBOR     1200   54      CALM  /  2 1008.8
$$

LMZ867-665-643>646-291400-
LAKE MICHIGAN

STATION/POSITION TIME  TEMP    WIND        PRES    WAVE
                       AIR SEA DIR/SP/G            HT/PER
                 (UTC) (F)     (DEG/KT/KT) (MB)    (FT/S)
CHAMBERS ISLAND  1200   65     160/  4/ 10 1011.2S
N MID LAKE BUOY  1250   50 46  190/ 14/ 16 1011.9R   3/ 5
NORTHPORT PIER   1200   54     150/  6/  9 1011.9R
SISTER BAY       1205   59     160/ 10/ 13   N/A
ALGOMA LAKESHORE 1202          210/ 10/ 12   N/A
KEWAUNEE LAKESHO 1200   51     180/ 11/ 11 1011.6R
SHEBOYGAN LAKESH 1300   56     180/ 16/ 16 1013.1S
PORT WASHINGTON  1200   53     190/  7/  8 1014.2
S MID LAKE BUOY  1250   54 50  170/ 10/ 12 1014.7R   1/ 3
KENOSHA   LAKESH 1300   70     210/  9/ 16 1014.2S
$$

TC  - TEMPERATURE IN CELSIUS
VSB - VISIBILITY IN STATUTE MILES
WCI - WIND CHILL INDEX
HX  - HEAT INDEX





USA.gov is the U.S. government's official web portal to all federal, state and local government web resources and services.